Time,TemperatureF,DewpointF,PressureIn,WindDirection,WindDirectionDegrees,WindSpeedMPH,WindSpeedGustMPH,Humidity,HourlyPrecipIn,Conditions,Clouds,dailyrainin,SoftwareType,DateUTC
2013-05-13 00:02:00,71.6,62.9,30.18,ESE,120,5.0,7.0,74,0.00,,---,0.00,VWS V14.01,2013-05-13 05:02:00,
2013-05-13 00:07:00,71.6,62.5,30.18,East,94,2.0,6.0,73,0.00,,---,0.00,VWS V14.01,2013-05-13 05:07:00,
2013-05-13 00:12:00,71.6,62.5,30.18,East,101,2.0,6.0,73,0.00,,---,0.00,VWS V14.01,2013-05-13 05:12:00,
2013-05-13 00:17:00,71.5,62.8,30.18,ESE,112,2.0,6.0,74,0.00,,---,0.00,VWS V14.01,2013-05-13 05:17:00,
2013-05-13 00:22:00,71.4,63.1,30.19,ESE,108,4.0,7.0,75,0.00,,---,0.00,VWS V14.01,2013-05-13 05:22:00,
2013-05-13 00:27:00,71.4,63.1,30.19,ESE,115,2.0,7.0,75,0.00,,---,0.00,VWS V14.01,2013-05-13 05:27:00,
2013-05-13 00:32:00,71.4,63.5,30.19,SE,125,2.0,7.0,76,0.00,,---,0.00,VWS V14.01,2013-05-13 05:32:00,
2013-05-13 00:37:00,71.3,63.3,30.19,ESE,118,2.0,7.0,76,0.00,,---,0.00,VWS V14.01,2013-05-13 05:37:00,
2013-05-13 00:42:00,71.2,63.3,30.19,ESE,117,3.0,7.0,76,0.00,,---,0.00,VWS V14.01,2013-05-13 05:42:00,
2013-05-13 00:47:00,71.1,63.5,30.19,ESE,112,3.0,7.0,77,0.00,,---,0.00,VWS V14.01,2013-05-13 05:47:00,
2013-05-13 00:52:00,71.1,63.5,30.19,ESE,116,2.0,7.0,77,0.00,,---,0.00,VWS V14.01,2013-05-13 05:52:00,
2013-05-13 00:57:00,71.0,63.4,30.19,ESE,106,2.0,7.0,77,0.00,,---,0.00,VWS V14.01,2013-05-13 05:57:00,
2013-05-13 01:02:00,71.0,63.4,30.19,ESE,120,2.0,7.0,77,0.00,,---,0.00,VWS V14.01,2013-05-13 06:02:00,
2013-05-13 01:07:00,70.9,63.7,30.19,ESE,120,2.0,4.0,78,0.00,,---,0.00,VWS V14.01,2013-05-13 06:07:00,
2013-05-13 01:12:00,70.9,63.7,30.19,ESE,113,1.0,4.0,78,0.00,,---,0.00,VWS V14.01,2013-05-13 06:12:00,
2013-05-13 01:17:00,70.9,63.7,30.18,ESE,105,0.0,4.0,78,0.00,,---,0.00,VWS V14.01,2013-05-13 06:17:00,
2013-05-13 01:22:00,70.8,64.0,30.18,ESE,118,2.0,4.0,79,0.00,,---,0.00,VWS V14.01,2013-05-13 06:22:00,
2013-05-13 01:27:00,70.8,63.6,30.18,ESE,114,2.0,4.0,78,0.00,,---,0.00,VWS V14.01,2013-05-13 06:27:00,
2013-05-13 01:32:00,70.6,63.8,30.18,ESE,117,1.0,4.0,79,0.00,,---,0.00,VWS V14.01,2013-05-13 06:32:00,
2013-05-13 01:37:00,70.3,63.5,30.18,ESE,119,0.0,4.0,79,0.00,,---,0.00,VWS V14.01,2013-05-13 06:37:00,
2013-05-13 01:42:00,70.2,63.8,30.18,ESE,107,0.0,4.0,80,0.00,,---,0.00,VWS V14.01,2013-05-13 06:42:00,
2013-05-13 01:47:00,70.0,63.5,30.18,ESE,113,0.0,4.0,80,0.00,,---,0.00,VWS V14.01,2013-05-13 06:47:00,
2013-05-13 01:52:00,70.0,63.5,30.18,ESE,103,0.0,4.0,80,0.00,,---,0.00,VWS V14.01,2013-05-13 06:52:00,
2013-05-13 01:57:00,69.9,63.8,30.17,ESE,103,0.0,4.0,81,0.00,,---,0.00,VWS V14.01,2013-05-13 06:57:00,
2013-05-13 02:02:00,69.6,63.5,30.17,ESE,103,1.0,4.0,81,0.00,,---,0.00,VWS V14.01,2013-05-13 07:02:00,
2013-05-13 02:07:00,69.3,63.6,30.17,East,95,1.0,1.0,82,0.00,,---,0.00,VWS V14.01,2013-05-13 07:07:00,
2013-05-13 02:12:00,69.2,63.5,30.17,East,95,1.0,1.0,82,0.00,,---,0.00,VWS V14.01,2013-05-13 07:12:00,
2013-05-13 02:17:00,69.0,63.3,30.17,East,94,0.0,1.0,82,0.00,,---,0.00,VWS V14.01,2013-05-13 07:17:00,
2013-05-13 02:22:00,69.0,63.3,30.17,East,95,0.0,1.0,82,0.00,,---,0.00,VWS V14.01,2013-05-13 07:22:00,
2013-05-13 02:27:00,69.0,63.3,30.17,East,95,0.0,1.0,82,0.00,,---,0.00,VWS V14.01,2013-05-13 07:27:00,
2013-05-13 02:32:00,69.2,63.5,30.17,East,94,0.0,1.0,82,0.00,,---,0.00,VWS V14.01,2013-05-13 07:32:00,
2013-05-13 02:37:00,69.1,63.0,30.18,East,94,0.0,1.0,81,0.00,,---,0.00,VWS V14.01,2013-05-13 07:37:00,
2013-05-13 02:42:00,68.8,62.7,30.18,East,94,0.0,1.0,81,0.00,,---,0.00,VWS V14.01,2013-05-13 07:42:00,
2013-05-13 02:47:00,68.4,62.7,30.18,East,95,0.0,1.0,82,0.00,,---,0.00,VWS V14.01,2013-05-13 07:47:00,
2013-05-13 02:52:00,68.2,62.5,30.18,East,95,0.0,1.0,82,0.00,,---,0.00,VWS V14.01,2013-05-13 07:52:00,
2013-05-13 02:57:00,68.0,62.7,30.18,East,94,0.0,1.0,83,0.00,,---,0.00,VWS V14.01,2013-05-13 07:57:00,
2013-05-13 03:02:00,67.8,62.5,30.18,East,95,0.0,1.0,83,0.00,,---,0.00,VWS V14.01,2013-05-13 08:02:00,
2013-05-13 03:07:00,67.4,62.1,30.18,East,94,0.0,0.0,83,0.00,,---,0.00,VWS V14.01,2013-05-13 08:07:00,
2013-05-13 03:12:00,67.3,62.3,30.18,East,95,0.0,0.0,84,0.00,,---,0.00,VWS V14.01,2013-05-13 08:12:00,
2013-05-13 03:17:00,67.3,62.3,30.18,East,94,0.0,0.0,84,0.00,,---,0.00,VWS V14.01,2013-05-13 08:17:00,
2013-05-13 03:22:00,67.1,62.1,30.18,East,94,0.0,0.0,84,0.00,,---,0.00,VWS V14.01,2013-05-13 08:22:00,
2013-05-13 03:28:00,66.9,62.6,30.18,East,94,0.0,1.0,86,0.00,,---,0.00,VWS V14.01,2013-05-13 08:28:00,
2013-05-13 03:33:00,67.1,62.5,30.18,East,95,0.0,1.0,85,0.00,,---,0.00,VWS V14.01,2013-05-13 08:33:00,
2013-05-13 03:38:00,67.2,62.5,30.18,East,94,0.0,1.0,85,0.00,,---,0.00,VWS V14.01,2013-05-13 08:38:00,
2013-05-13 03:43:00,67.6,62.9,30.18,East,94,0.0,1.0,85,0.00,,---,0.00,VWS V14.01,2013-05-13 08:43:00,
2013-05-13 03:48:00,67.6,62.6,30.18,East,94,0.0,1.0,84,0.00,,---,0.00,VWS V14.01,2013-05-13 08:48:00,
2013-05-13 03:53:00,67.4,62.4,30.19,East,94,0.0,1.0,84,0.00,,---,0.00,VWS V14.01,2013-05-13 08:53:00,
2013-05-13 03:58:00,67.1,62.5,30.19,East,94,0.0,1.0,85,0.00,,---,0.00,VWS V14.01,2013-05-13 08:58:00,
2013-05-13 04:03:00,66.8,62.2,30.19,NE,47,0.0,0.0,85,0.00,,---,0.00,VWS V14.01,2013-05-13 09:03:00,
2013-05-13 04:08:00,66.5,61.9,30.19,NE,34,1.0,2.0,85,0.00,,---,0.00,VWS V14.01,2013-05-13 09:08:00,
2013-05-13 04:13:00,66.3,62.0,30.19,NNE,30,1.0,2.0,86,0.00,,---,0.00,VWS V14.01,2013-05-13 09:13:00,
2013-05-13 04:18:00,66.5,62.2,30.19,NNE,27,1.0,2.0,86,0.00,,---,0.00,VWS V14.01,2013-05-13 09:18:00,
2013-05-13 04:23:00,66.6,62.3,30.19,NNE,17,2.0,2.0,86,0.00,,---,0.00,VWS V14.01,2013-05-13 09:23:00,
2013-05-13 04:28:00,66.6,62.3,30.19,NNE,20,2.0,2.0,86,0.00,,---,0.00,VWS V14.01,2013-05-13 09:28:00,
2013-05-13 04:33:00,66.7,62.4,30.19,NNE,22,2.0,2.0,86,0.00,,---,0.00,VWS V14.01,2013-05-13 09:33:00,
2013-05-13 04:38:00,66.5,62.5,30.19,North,8,1.0,3.0,87,0.00,,---,0.00,VWS V14.01,2013-05-13 09:38:00,
2013-05-13 04:43:00,66.4,62.7,30.19,NNE,19,0.0,3.0,88,0.00,,---,0.00,VWS V14.01,2013-05-13 09:43:00,
2013-05-13 04:48:00,66.7,63.7,30.19,NNE,29,1.0,3.0,90,0.00,,---,0.00,VWS V14.01,2013-05-13 09:48:00,
2013-05-13 04:53:00,66.9,63.9,30.19,NE,36,0.0,3.0,90,0.00,,---,0.00,VWS V14.01,2013-05-13 09:53:00,
2013-05-13 04:58:00,66.9,63.9,30.19,NE,36,0.0,3.0,90,0.00,,---,0.00,VWS V14.01,2013-05-13 09:58:00,
2013-05-13 05:03:00,67.0,64.0,30.19,NE,37,0.0,1.0,90,0.00,,---,0.00,VWS V14.01,2013-05-13 10:03:00,
2013-05-13 05:08:00,67.0,64.0,30.19,North,11,1.0,2.0,90,0.00,,---,0.00,VWS V14.01,2013-05-13 10:08:00,
2013-05-13 05:13:00,67.1,64.1,30.19,NE,37,2.0,3.0,90,0.00,,---,0.00,VWS V14.01,2013-05-13 10:13:00,
2013-05-13 05:18:00,67.2,64.2,30.19,North,8,1.0,3.0,90,0.00,,---,0.00,VWS V14.01,2013-05-13 10:18:00,
2013-05-13 05:23:00,67.2,63.8,30.19,NNE,27,2.0,3.0,89,0.00,,---,0.00,VWS V14.01,2013-05-13 10:23:00,
2013-05-13 05:28:00,67.3,64.0,30.20,NNE,33,1.0,3.0,89,0.00,,---,0.00,VWS V14.01,2013-05-13 10:28:00,
2013-05-13 05:33:00,67.4,64.1,30.19,NE,34,2.0,3.0,89,0.00,,---,0.00,VWS V14.01,2013-05-13 10:33:00,
2013-05-13 05:38:00,67.6,64.2,30.20,NE,43,2.0,4.0,89,0.00,,---,0.00,VWS V14.01,2013-05-13 10:38:00,
2013-05-13 05:43:00,67.8,64.4,30.20,NE,37,3.0,5.0,89,0.00,,---,0.00,VWS V14.01,2013-05-13 10:43:00,
2013-05-13 05:48:00,68.0,64.3,30.20,NE,54,3.0,5.0,88,0.00,,---,0.00,VWS V14.01,2013-05-13 10:48:00,
2013-05-13 05:53:00,68.3,64.3,30.20,NE,56,4.0,7.0,87,0.00,,---,0.00,VWS V14.01,2013-05-13 10:53:00,
2013-05-13 05:58:00,68.4,64.1,30.20,NE,56,3.0,7.0,86,0.00,,---,0.00,VWS V14.01,2013-05-13 10:58:00,
2013-05-13 06:03:00,68.4,64.1,30.20,NE,53,3.0,6.0,86,0.00,,---,0.00,VWS V14.01,2013-05-13 11:03:00,
2013-05-13 06:08:00,68.4,63.7,30.21,NE,40,3.0,7.0,85,0.00,,---,0.00,VWS V14.01,2013-05-13 11:08:00,
2013-05-13 06:13:00,68.2,62.8,30.21,NE,46,4.0,7.0,83,0.00,,---,0.00,VWS V14.01,2013-05-13 11:13:00,
2013-05-13 06:18:00,68.2,62.2,30.21,NE,45,3.0,8.0,81,0.00,,---,0.00,VWS V14.01,2013-05-13 11:18:00,
2013-05-13 06:23:00,68.0,62.0,30.21,ENE,61,2.0,8.0,81,0.00,,---,0.00,VWS V14.01,2013-05-13 11:23:00,
2013-05-13 06:28:00,67.9,61.9,30.21,NNE,33,4.0,8.0,81,0.00,,---,0.00,VWS V14.01,2013-05-13 11:28:00,
2013-05-13 06:33:00,67.9,61.9,30.21,NE,51,4.0,8.0,81,0.00,,---,0.00,VWS V14.01,2013-05-13 11:33:00,
2013-05-13 06:38:00,67.8,62.1,30.21,NE,56,3.0,8.0,82,0.00,,---,0.00,VWS V14.01,2013-05-13 11:38:00,
2013-05-13 06:43:00,67.7,62.0,30.21,ENE,65,2.0,8.0,82,0.00,,---,0.00,VWS V14.01,2013-05-13 11:43:00,
2013-05-13 06:48:00,67.7,62.4,30.22,ENE,63,1.0,8.0,83,0.00,,---,0.00,VWS V14.01,2013-05-13 11:48:00,
2013-05-13 06:53:00,67.6,62.6,30.22,ENE,61,1.0,8.0,84,0.00,,---,0.00,VWS V14.01,2013-05-13 11:53:00,
2013-05-13 06:58:00,67.8,62.8,30.22,NE,56,2.0,8.0,84,0.00,,---,0.00,VWS V14.01,2013-05-13 11:58:00,
2013-05-13 07:03:00,68.0,63.0,30.22,NE,47,1.0,1.0,84,0.00,,---,0.00,VWS V14.01,2013-05-13 12:03:00,
2013-05-13 07:08:00,68.1,63.1,30.22,NE,47,1.0,2.0,84,0.00,,---,0.00,VWS V14.01,2013-05-13 12:08:00,
2013-05-13 07:13:00,68.5,63.5,30.22,NE,45,1.0,2.0,84,0.00,,---,0.00,VWS V14.01,2013-05-13 12:13:00,
2013-05-13 07:18:00,69.0,63.6,30.23,NE,54,1.0,2.0,83,0.00,,---,0.00,VWS V14.01,2013-05-13 12:18:00,
2013-05-13 07:23:00,69.4,64.0,30.23,NE,54,2.0,2.0,83,0.00,,---,0.00,VWS V14.01,2013-05-13 12:23:00,
2013-05-13 07:28:00,69.9,64.5,30.23,ENE,60,1.0,2.0,83,0.00,,---,0.00,VWS V14.01,2013-05-13 12:28:00,
2013-05-13 07:33:00,70.3,64.6,30.23,East,99,0.0,2.0,82,0.00,,---,0.00,VWS V14.01,2013-05-13 12:33:00,
2013-05-13 07:38:00,70.8,65.0,30.23,ENE,64,2.0,2.0,82,0.00,,---,0.00,VWS V14.01,2013-05-13 12:38:00,
2013-05-13 07:43:00,71.0,65.2,30.23,ENE,61,2.0,4.0,82,0.00,,---,0.00,VWS V14.01,2013-05-13 12:43:00,
2013-05-13 07:48:00,71.3,65.2,30.23,NE,44,4.0,6.0,81,0.00,,---,0.00,VWS V14.01,2013-05-13 12:48:00,
2013-05-13 07:53:00,71.4,65.3,30.23,ENE,67,6.0,7.0,81,0.00,,---,0.00,VWS V14.01,2013-05-13 12:53:00,
2013-05-13 07:58:00,71.5,65.4,30.23,ENE,58,4.0,7.0,81,0.00,,---,0.00,VWS V14.01,2013-05-13 12:58:00,
2013-05-13 08:03:00,71.8,65.3,30.24,NE,43,4.0,6.0,80,0.00,,---,0.00,VWS V14.01,2013-05-13 13:03:00,
2013-05-13 08:08:00,71.8,65.7,30.24,ENE,61,5.0,8.0,81,0.00,,---,0.00,VWS V14.01,2013-05-13 13:08:00,
2013-05-13 08:13:00,71.9,65.8,30.24,ENE,57,5.0,8.0,81,0.00,,---,0.00,VWS V14.01,2013-05-13 13:13:00,
2013-05-13 08:18:00,72.1,66.3,30.24,ENE,65,5.0,8.0,82,0.00,,---,0.00,VWS V14.01,2013-05-13 13:18:00,
2013-05-13 08:23:00,72.4,66.6,30.25,NE,56,8.0,8.0,82,0.00,,---,0.00,VWS V14.01,2013-05-13 13:23:00,
2013-05-13 08:28:00,72.3,66.5,30.25,ENE,64,7.0,9.0,82,0.00,,---,0.00,VWS V14.01,2013-05-13 13:28:00,
2013-05-13 08:33:00,72.5,66.7,30.25,NE,37,4.0,9.0,82,0.00,,---,0.00,VWS V14.01,2013-05-13 13:33:00,
2013-05-13 08:38:00,72.5,66.3,30.25,ENE,75,6.0,9.0,81,0.00,,---,0.00,VWS V14.01,2013-05-13 13:38:00,
2013-05-13 08:43:00,72.6,66.8,30.26,ESE,110,6.0,10.0,82,0.00,,---,0.00,VWS V14.01,2013-05-13 13:43:00,
2013-05-13 08:48:00,72.9,67.1,30.26,ENE,64,7.0,10.0,82,0.00,,---,0.00,VWS V14.01,2013-05-13 13:48:00,
2013-05-13 08:53:00,72.7,66.9,30.26,NNW,348,3.0,10.0,82,0.00,,---,0.00,VWS V14.01,2013-05-13 13:53:00,
2013-05-13 08:58:00,72.7,66.5,30.26,NE,39,6.0,10.0,81,0.00,,---,0.00,VWS V14.01,2013-05-13 13:58:00,
2013-05-13 09:03:00,72.9,67.4,30.26,ENE,68,9.0,9.0,83,0.00,,---,0.00,VWS V14.01,2013-05-13 14:03:00,
2013-05-13 09:08:00,73.0,67.2,30.26,ENE,64,7.0,10.0,82,0.00,,---,0.00,VWS V14.01,2013-05-13 14:08:00,
2013-05-13 09:13:00,73.0,67.2,30.26,ENE,65,3.0,10.0,82,0.00,,---,0.00,VWS V14.01,2013-05-13 14:13:00,
2013-05-13 09:18:00,73.3,67.1,30.27,ENE,70,7.0,10.0,81,0.00,,---,0.00,VWS V14.01,2013-05-13 14:18:00,
2013-05-13 09:23:00,73.3,67.1,30.27,ENE,61,8.0,11.0,81,0.00,,---,0.00,VWS V14.01,2013-05-13 14:23:00,
2013-05-13 09:28:00,73.2,67.0,30.27,NE,56,6.0,11.0,81,0.00,,---,0.00,VWS V14.01,2013-05-13 14:28:00,
2013-05-13 09:33:00,73.1,66.9,30.27,ENE,61,5.0,12.0,81,0.00,,---,0.00,VWS V14.01,2013-05-13 14:33:00,
2013-05-13 09:38:00,73.4,67.2,30.27,ENE,57,12.0,12.0,81,0.00,,---,0.00,VWS V14.01,2013-05-13 14:38:00,
2013-05-13 09:43:00,73.4,67.2,30.27,ENE,69,5.0,12.0,81,0.00,,---,0.00,VWS V14.01,2013-05-13 14:43:00,
2013-05-13 09:48:00,73.4,67.2,30.28,ENE,61,11.0,12.0,81,0.00,,---,0.00,VWS V14.01,2013-05-13 14:48:00,
2013-05-13 09:53:00,73.5,67.0,30.27,ENE,69,7.0,12.0,80,0.00,,---,0.00,VWS V14.01,2013-05-13 14:53:00,
2013-05-13 09:58:00,73.6,67.1,30.28,NE,56,4.0,12.0,80,0.00,,---,0.00,VWS V14.01,2013-05-13 14:58:00,
2013-05-13 10:03:00,74.0,67.4,30.28,NE,53,5.0,7.0,80,0.00,,---,0.00,VWS V14.01,2013-05-13 15:03:00,
2013-05-13 10:08:00,74.5,67.6,30.28,East,93,7.0,10.0,79,0.00,,---,0.00,VWS V14.01,2013-05-13 15:08:00,
2013-05-13 10:13:00,74.4,66.7,30.27,ENE,67,8.0,10.0,77,0.00,,---,0.00,VWS V14.01,2013-05-13 15:13:00,
2013-05-13 10:18:00,74.1,66.8,30.27,ENE,60,6.0,10.0,78,0.00,,---,0.00,VWS V14.01,2013-05-13 15:18:00,
2013-05-13 10:23:00,74.2,66.5,30.27,ENE,60,8.0,10.0,77,0.00,,---,0.00,VWS V14.01,2013-05-13 15:23:00,
2013-05-13 10:28:00,74.6,67.3,30.27,ENE,61,6.0,10.0,78,0.00,,---,0.00,VWS V14.01,2013-05-13 15:28:00,
2013-05-13 10:33:00,74.6,66.9,30.27,ENE,58,9.0,10.0,77,0.00,,---,0.00,VWS V14.01,2013-05-13 15:33:00,
2013-05-13 10:38:00,74.6,67.3,30.27,East,90,9.0,11.0,78,0.00,,---,0.00,VWS V14.01,2013-05-13 15:38:00,
2013-05-13 10:43:00,75.0,66.9,30.28,ESE,117,7.0,11.0,76,0.00,,---,0.00,VWS V14.01,2013-05-13 15:43:00,
2013-05-13 10:48:00,75.4,66.9,30.28,ESE,109,6.0,11.0,75,0.00,,---,0.00,VWS V14.01,2013-05-13 15:48:00,
2013-05-13 10:53:00,75.5,66.2,30.28,ESE,115,7.0,11.0,73,0.00,,---,0.00,VWS V14.01,2013-05-13 15:53:00,
2013-05-13 10:58:00,75.5,67.0,30.28,SE,131,5.0,11.0,75,0.00,,---,0.00,VWS V14.01,2013-05-13 15:58:00,
2013-05-13 11:03:00,75.6,66.7,30.28,ENE,72,6.0,9.0,74,0.00,,---,0.00,VWS V14.01,2013-05-13 16:03:00,
2013-05-13 11:08:00,75.8,67.7,30.28,NE,53,5.0,11.0,76,0.00,,---,0.00,VWS V14.01,2013-05-13 16:08:00,
2013-05-13 11:13:00,75.9,66.6,30.27,East,94,11.0,11.0,73,0.00,,---,0.00,VWS V14.01,2013-05-13 16:13:00,
2013-05-13 11:18:00,75.8,67.3,30.27,ENE,70,9.0,11.0,75,0.00,,---,0.00,VWS V14.01,2013-05-13 16:18:00,
2013-05-13 11:23:00,75.6,66.3,30.27,East,82,7.0,12.0,73,0.00,,---,0.00,VWS V14.01,2013-05-13 16:23:00,
2013-05-13 11:28:00,76.0,66.7,30.27,ESE,109,5.0,12.0,73,0.00,,---,0.00,VWS V14.01,2013-05-13 16:28:00,
2013-05-13 11:33:00,76.0,65.9,30.27,ENE,68,9.0,12.0,71,0.00,,---,0.00,VWS V14.01,2013-05-13 16:33:00,
2013-05-13 11:38:00,75.6,65.9,30.27,ESE,103,9.0,12.0,72,0.00,,---,0.00,VWS V14.01,2013-05-13 16:38:00,
2013-05-13 11:43:00,75.9,66.6,30.27,ESE,105,5.0,12.0,73,0.00,,---,0.00,VWS V14.01,2013-05-13 16:43:00,
2013-05-13 11:48:00,76.1,66.0,30.27,SE,124,8.0,12.0,71,0.00,,---,0.00,VWS V14.01,2013-05-13 16:48:00,
2013-05-13 11:53:00,75.8,66.1,30.28,ESE,110,12.0,12.0,72,0.00,,---,0.00,VWS V14.01,2013-05-13 16:53:00,
2013-05-13 11:58:00,75.8,65.7,30.28,East,79,5.0,12.0,71,0.00,,---,0.00,VWS V14.01,2013-05-13 16:58:00,
2013-05-13 12:03:00,75.9,65.8,30.28,ESE,122,6.0,9.0,71,0.00,,---,0.00,VWS V14.01,2013-05-13 17:03:00,
2013-05-13 12:08:00,75.7,65.2,30.28,East,90,5.0,11.0,70,0.00,,---,0.00,VWS V14.01,2013-05-13 17:08:00,
2013-05-13 12:13:00,76.1,66.8,30.28,ESE,118,6.0,11.0,73,0.00,,---,0.00,VWS V14.01,2013-05-13 17:13:00,
2013-05-13 12:18:00,76.0,66.3,30.28,ESE,102,5.0,12.0,72,0.00,,---,0.00,VWS V14.01,2013-05-13 17:18:00,
2013-05-13 12:23:00,75.5,65.4,30.28,ENE,72,5.0,12.0,71,0.00,,---,0.00,VWS V14.01,2013-05-13 17:23:00,
2013-05-13 12:28:00,76.0,67.5,30.28,East,89,3.0,12.0,75,0.00,,---,0.00,VWS V14.01,2013-05-13 17:28:00,
2013-05-13 12:33:00,76.2,66.5,30.28,SE,139,3.0,12.0,72,0.00,,---,0.00,VWS V14.01,2013-05-13 17:33:00,
2013-05-13 12:38:00,75.8,66.9,30.28,East,101,6.0,12.0,74,0.00,,---,0.00,VWS V14.01,2013-05-13 17:38:00,
2013-05-13 12:43:00,75.8,67.3,30.27,East,90,10.0,12.0,75,0.00,,---,0.00,VWS V14.01,2013-05-13 17:43:00,
2013-05-13 12:48:00,75.8,66.5,30.27,ENE,70,8.0,12.0,73,0.00,,---,0.00,VWS V14.01,2013-05-13 17:48:00,
2013-05-13 12:53:00,76.2,67.3,30.27,ESE,112,10.0,12.0,74,0.00,,---,0.00,VWS V14.01,2013-05-13 17:53:00,
2013-05-13 12:58:00,76.2,67.7,30.27,ESE,113,9.0,12.0,75,0.00,,---,0.00,VWS V14.01,2013-05-13 17:58:00,
2013-05-13 13:03:00,75.6,67.5,30.27,East,89,5.0,10.0,76,0.00,,---,0.00,VWS V14.01,2013-05-13 18:03:00,
2013-05-13 13:08:00,75.4,67.3,30.28,ESE,109,9.0,12.0,76,0.00,,---,0.00,VWS V14.01,2013-05-13 18:08:00,
2013-05-13 13:13:00,75.4,67.3,30.28,East,89,4.0,12.0,76,0.00,,---,0.00,VWS V14.01,2013-05-13 18:13:00,
2013-05-13 13:18:00,75.7,67.6,30.28,East,81,11.0,12.0,76,0.00,,---,0.00,VWS V14.01,2013-05-13 18:18:00,
2013-05-13 13:23:00,75.8,67.3,30.28,ESE,107,11.0,12.0,75,0.00,,---,0.00,VWS V14.01,2013-05-13 18:23:00,
2013-05-13 13:28:00,75.6,68.3,30.28,East,79,7.0,13.0,78,0.00,,---,0.00,VWS V14.01,2013-05-13 18:28:00,
2013-05-13 13:33:00,75.7,68.4,30.27,East,98,10.0,13.0,78,0.00,,---,0.00,VWS V14.01,2013-05-13 18:33:00,
2013-05-13 13:38:00,75.7,68.0,30.27,ESE,104,11.0,13.0,77,0.00,,---,0.00,VWS V14.01,2013-05-13 18:38:00,
2013-05-13 13:43:00,75.5,67.8,30.27,East,84,4.0,14.0,77,0.00,,---,0.00,VWS V14.01,2013-05-13 18:43:00,
2013-05-13 13:48:00,75.8,68.5,30.27,East,86,10.0,14.0,78,0.00,,---,0.00,VWS V14.01,2013-05-13 18:48:00,
2013-05-13 13:53:00,75.8,68.8,30.27,ESE,117,8.0,14.0,79,0.00,,---,0.00,VWS V14.01,2013-05-13 18:53:00,
2013-05-13 13:58:00,75.3,68.3,30.27,ESE,113,7.0,14.0,79,0.00,,---,0.00,VWS V14.01,2013-05-13 18:58:00,
2013-05-13 14:03:00,75.6,68.3,30.27,SE,125,9.0,10.0,78,0.00,,---,0.00,VWS V14.01,2013-05-13 19:03:00,
2013-05-13 14:08:00,75.6,67.9,30.27,ESE,122,8.0,13.0,77,0.00,,---,0.00,VWS V14.01,2013-05-13 19:08:00,
2013-05-13 14:13:00,75.5,67.8,30.26,ESE,115,4.0,13.0,77,0.00,,---,0.00,VWS V14.01,2013-05-13 19:13:00,
2013-05-13 14:18:00,75.2,67.1,30.26,East,96,3.0,13.0,76,0.00,,---,0.00,VWS V14.01,2013-05-13 19:18:00,
2013-05-13 14:23:00,75.3,67.2,30.26,ESE,109,8.0,13.0,76,0.00,,---,0.00,VWS V14.01,2013-05-13 19:23:00,
2013-05-13 14:28:00,75.3,67.6,30.26,ESE,122,11.0,14.0,77,0.00,,---,0.00,VWS V14.01,2013-05-13 19:28:00,
2013-05-13 14:33:00,75.6,67.1,30.25,SE,131,9.0,14.0,75,0.00,,---,0.00,VWS V14.01,2013-05-13 19:33:00,
2013-05-13 14:38:00,75.7,66.8,30.25,ENE,74,10.0,14.0,74,0.00,,---,0.00,VWS V14.01,2013-05-13 19:38:00,
2013-05-13 14:43:00,75.2,67.1,30.25,ESE,116,9.0,14.0,76,0.00,,---,0.00,VWS V14.01,2013-05-13 19:43:00,
2013-05-13 14:48:00,75.3,67.2,30.25,East,85,6.0,14.0,76,0.00,,---,0.00,VWS V14.01,2013-05-13 19:48:00,
2013-05-13 14:53:00,75.5,66.2,30.26,East,98,10.0,14.0,73,0.00,,---,0.00,VWS V14.01,2013-05-13 19:53:00,
2013-05-13 14:58:00,75.4,66.9,30.25,East,98,8.0,14.0,75,0.00,,---,0.00,VWS V14.01,2013-05-13 19:58:00,
2013-05-13 15:03:00,75.5,67.4,30.25,East,79,6.0,12.0,76,0.00,,---,0.00,VWS V14.01,2013-05-13 20:03:00,
2013-05-13 15:08:00,75.6,66.7,30.25,East,95,5.0,14.0,74,0.00,,---,0.00,VWS V14.01,2013-05-13 20:08:00,
2013-05-13 15:13:00,75.4,66.9,30.25,ESE,121,6.0,14.0,75,0.00,,---,0.00,VWS V14.01,2013-05-13 20:13:00,
2013-05-13 15:18:00,75.6,67.1,30.24,ESE,103,5.0,14.0,75,0.00,,---,0.00,VWS V14.01,2013-05-13 20:18:00,
2013-05-13 15:23:00,75.6,67.1,30.24,ESE,116,6.0,14.0,75,0.00,,---,0.00,VWS V14.01,2013-05-13 20:23:00,
2013-05-13 15:28:00,75.6,67.1,30.24,East,91,8.0,14.0,75,0.00,,---,0.00,VWS V14.01,2013-05-13 20:28:00,
2013-05-13 15:33:00,75.6,67.1,30.24,ENE,65,6.0,14.0,75,0.00,,---,0.00,VWS V14.01,2013-05-13 20:33:00,
2013-05-13 15:38:00,75.3,66.4,30.23,ENE,68,9.0,14.0,74,0.00,,---,0.00,VWS V14.01,2013-05-13 20:38:00,
2013-05-13 15:43:00,75.1,67.0,30.23,ESE,111,7.0,14.0,76,0.00,,---,0.00,VWS V14.01,2013-05-13 20:43:00,
2013-05-13 15:48:00,74.7,66.6,30.23,ESE,115,9.0,15.0,76,0.00,,---,0.00,VWS V14.01,2013-05-13 20:48:00,
2013-05-13 15:53:00,74.8,66.3,30.22,SE,131,8.0,15.0,75,0.00,,---,0.00,VWS V14.01,2013-05-13 20:53:00,
2013-05-13 15:58:00,74.7,66.6,30.22,ESE,118,9.0,15.0,76,0.00,,---,0.00,VWS V14.01,2013-05-13 20:58:00,
2013-05-13 16:03:00,74.8,66.3,30.22,ESE,110,8.0,12.0,75,0.00,,---,0.00,VWS V14.01,2013-05-13 21:03:00,
2013-05-13 16:08:00,75.2,67.5,30.22,ESE,105,13.0,13.0,77,0.00,,---,0.00,VWS V14.01,2013-05-13 21:08:00,
2013-05-13 16:13:00,74.9,67.2,30.22,East,83,9.0,14.0,77,0.00,,---,0.00,VWS V14.01,2013-05-13 21:13:00,
2013-05-13 16:18:00,74.9,66.4,30.22,ESE,122,8.0,15.0,75,0.00,,---,0.00,VWS V14.01,2013-05-13 21:18:00,
2013-05-13 16:23:00,74.9,66.8,30.22,ESE,103,13.0,15.0,76,0.00,,---,0.00,VWS V14.01,2013-05-13 21:23:00,
2013-05-13 16:28:00,75.0,66.9,30.21,East,92,9.0,15.0,76,0.00,,---,0.00,VWS V14.01,2013-05-13 21:28:00,
2013-05-13 16:33:00,75.1,66.2,30.21,East,89,12.0,15.0,74,0.00,,---,0.00,VWS V14.01,2013-05-13 21:33:00,
2013-05-13 16:38:00,75.0,66.6,30.21,East,98,7.0,15.0,75,0.00,,---,0.00,VWS V14.01,2013-05-13 21:38:00,
2013-05-13 16:43:00,74.9,66.4,30.21,SE,145,12.0,15.0,75,0.00,,---,0.00,VWS V14.01,2013-05-13 21:43:00,
2013-05-13 16:48:00,74.9,66.4,30.21,East,89,9.0,15.0,75,0.00,,---,0.00,VWS V14.01,2013-05-13 21:48:00,
2013-05-13 16:53:00,75.0,66.6,30.21,ESE,116,9.0,15.0,75,0.00,,---,0.00,VWS V14.01,2013-05-13 21:53:00,
2013-05-13 16:58:00,74.7,66.3,30.21,ESE,118,10.0,15.0,75,0.00,,---,0.00,VWS V14.01,2013-05-13 21:58:00,
2013-05-13 17:03:00,74.6,66.2,30.20,SE,136,8.0,12.0,75,0.00,,---,0.00,VWS V14.01,2013-05-13 22:03:00,
2013-05-13 17:08:00,74.8,66.3,30.20,East,101,13.0,16.0,75,0.00,,---,0.00,VWS V14.01,2013-05-13 22:08:00,
2013-05-13 17:13:00,74.9,66.8,30.20,East,94,5.0,16.0,76,0.00,,---,0.00,VWS V14.01,2013-05-13 22:13:00,
2013-05-13 17:18:00,74.9,66.4,30.20,SE,127,10.0,16.0,75,0.00,,---,0.00,VWS V14.01,2013-05-13 22:18:00,
2013-05-13 17:23:00,74.9,66.4,30.20,East,96,9.0,16.0,75,0.00,,---,0.00,VWS V14.01,2013-05-13 22:23:00,
2013-05-13 17:28:00,74.5,66.1,30.21,East,98,11.0,16.0,75,0.00,,---,0.00,VWS V14.01,2013-05-13 22:28:00,
2013-05-13 17:33:00,74.5,66.4,30.21,ESE,107,10.0,16.0,76,0.00,,---,0.00,VWS V14.01,2013-05-13 22:33:00,
2013-05-13 17:38:00,74.2,66.5,30.21,ESE,113,8.0,16.0,77,0.00,,---,0.00,VWS V14.01,2013-05-13 22:38:00,
2013-05-13 17:43:00,74.4,66.3,30.21,East,94,4.0,16.0,76,0.00,,---,0.00,VWS V14.01,2013-05-13 22:43:00,
2013-05-13 17:48:00,74.5,66.1,30.21,ESE,113,7.0,16.0,75,0.00,,---,0.00,VWS V14.01,2013-05-13 22:48:00,
2013-05-13 17:53:00,74.5,66.1,30.21,SSE,150,7.0,16.0,75,0.00,,---,0.00,VWS V14.01,2013-05-13 22:53:00,
2013-05-13 17:58:00,74.3,65.9,30.21,SE,127,3.0,16.0,75,0.00,,---,0.00,VWS V14.01,2013-05-13 22:58:00,
2013-05-13 18:03:00,74.2,65.4,30.21,ESE,113,4.0,10.0,74,0.00,,---,0.00,VWS V14.01,2013-05-13 23:03:00,
2013-05-13 18:08:00,74.1,66.1,30.20,East,96,7.0,12.0,76,0.00,,---,0.00,VWS V14.01,2013-05-13 23:08:00,
2013-05-13 18:13:00,74.1,66.4,30.20,ESE,105,9.0,12.0,77,0.00,,---,0.00,VWS V14.01,2013-05-13 23:13:00,
2013-05-13 18:18:00,74.0,65.6,30.21,ESE,121,6.0,12.0,75,0.00,,---,0.00,VWS V14.01,2013-05-13 23:18:00,
2013-05-13 18:23:00,73.9,65.5,30.21,ESE,120,10.0,12.0,75,0.00,,---,0.00,VWS V14.01,2013-05-13 23:23:00,
2013-05-13 18:28:00,73.7,65.7,30.21,East,90,11.0,12.0,76,0.00,,---,0.00,VWS V14.01,2013-05-13 23:28:00,
2013-05-13 18:33:00,73.7,65.3,30.21,East,96,7.0,12.0,75,0.00,,---,0.00,VWS V14.01,2013-05-13 23:33:00,
2013-05-13 18:38:00,73.4,66.1,30.21,SE,124,5.0,12.0,78,0.00,,---,0.00,VWS V14.01,2013-05-13 23:38:00,
2013-05-13 18:43:00,73.4,65.8,30.21,ESE,118,7.0,12.0,77,0.00,,---,0.00,VWS V14.01,2013-05-13 23:43:00,
2013-05-13 18:48:00,73.4,65.8,30.21,East,97,7.0,12.0,77,0.00,,---,0.00,VWS V14.01,2013-05-13 23:48:00,
2013-05-13 18:53:00,73.3,66.0,30.21,SSE,159,4.0,12.0,78,0.00,,---,0.00,VWS V14.01,2013-05-13 23:53:00,
2013-05-13 18:58:00,73.3,66.0,30.20,ESE,111,7.0,12.0,78,0.00,,---,0.00,VWS V14.01,2013-05-13 23:58:00,
2013-05-13 19:03:00,73.1,66.2,30.20,SE,131,4.0,8.0,79,0.00,,---,0.00,VWS V14.01,2013-05-14 00:03:00,
2013-05-13 19:08:00,72.9,65.7,30.20,ESE,123,11.0,11.0,78,0.00,,---,0.00,VWS V14.01,2013-05-14 00:08:00,
2013-05-13 19:13:00,72.8,65.6,30.20,ESE,117,8.0,12.0,78,0.00,,---,0.00,VWS V14.01,2013-05-14 00:13:00,
2013-05-13 19:18:00,72.7,65.1,30.21,SE,127,7.0,12.0,77,0.00,,---,0.00,VWS V14.01,2013-05-14 00:18:00,
2013-05-13 19:23:00,72.5,64.9,30.20,ESE,122,6.0,12.0,77,0.00,,---,0.00,VWS V14.01,2013-05-14 00:23:00,
2013-05-13 19:28:00,72.3,65.1,30.21,South,175,4.0,12.0,78,0.00,,---,0.00,VWS V14.01,2013-05-14 00:28:00,
2013-05-13 19:33:00,72.1,64.9,30.21,SE,131,11.0,13.0,78,0.00,,---,0.00,VWS V14.01,2013-05-14 00:33:00,
2013-05-13 19:38:00,72.0,65.1,30.21,East,100,9.0,13.0,79,0.00,,---,0.00,VWS V14.01,2013-05-14 00:38:00,
2013-05-13 19:43:00,71.9,65.8,30.21,SSE,149,2.0,13.0,81,0.00,,---,0.00,VWS V14.01,2013-05-14 00:43:00,
2013-05-13 19:48:00,71.8,65.3,30.21,ESE,102,6.0,13.0,80,0.00,,---,0.00,VWS V14.01,2013-05-14 00:48:00,
2013-05-13 19:53:00,71.8,65.3,30.20,SE,145,6.0,13.0,80,0.00,,---,0.00,VWS V14.01,2013-05-14 00:53:00,
2013-05-13 19:58:00,71.8,65.7,30.21,East,86,8.0,13.0,81,0.00,,---,0.00,VWS V14.01,2013-05-14 00:58:00,
2013-05-13 20:03:00,71.8,66.0,30.21,East,97,8.0,9.0,82,0.00,,---,0.00,VWS V14.01,2013-05-14 01:03:00,
2013-05-13 20:08:00,71.6,65.5,30.22,ESE,114,5.0,11.0,81,0.00,,---,0.00,VWS V14.01,2013-05-14 01:08:00,
2013-05-13 20:13:00,71.5,65.4,30.22,SE,127,4.0,11.0,81,0.00,,---,0.00,VWS V14.01,2013-05-14 01:13:00,
2013-05-13 20:18:00,71.6,65.8,30.22,East,95,6.0,11.0,82,0.00,,---,0.00,VWS V14.01,2013-05-14 01:18:00,
2013-05-13 20:23:00,71.5,65.4,30.22,ESE,115,7.0,13.0,81,0.00,,---,0.00,VWS V14.01,2013-05-14 01:23:00,
2013-05-13 20:28:00,71.5,65.7,30.22,SE,132,9.0,13.0,82,0.00,,---,0.00,VWS V14.01,2013-05-14 01:28:00,
2013-05-13 20:33:00,71.5,65.4,30.22,ESE,121,5.0,13.0,81,0.00,,---,0.00,VWS V14.01,2013-05-14 01:33:00,
2013-05-13 20:38:00,71.5,65.7,30.22,ESE,122,7.0,13.0,82,0.00,,---,0.00,VWS V14.01,2013-05-14 01:38:00,
2013-05-13 20:43:00,71.5,65.7,30.22,ESE,105,8.0,13.0,82,0.00,,---,0.00,VWS V14.01,2013-05-14 01:43:00,
2013-05-13 20:48:00,71.5,65.4,30.21,SE,146,7.0,13.0,81,0.00,,---,0.00,VWS V14.01,2013-05-14 01:48:00,
2013-05-13 20:53:00,71.6,65.5,30.22,East,90,4.0,13.0,81,0.00,,---,0.00,VWS V14.01,2013-05-14 01:53:00,
2013-05-13 20:58:00,71.6,65.8,30.21,East,97,9.0,13.0,82,0.00,,---,0.00,VWS V14.01,2013-05-14 01:58:00,
2013-05-13 21:03:00,71.6,65.1,30.21,SSE,153,6.0,12.0,80,0.00,,---,0.00,VWS V14.01,2013-05-14 02:03:00,
2013-05-13 21:08:00,71.6,65.1,30.22,SE,129,10.0,12.0,80,0.00,,---,0.00,VWS V14.01,2013-05-14 02:08:00,
2013-05-13 21:13:00,71.7,65.2,30.22,SE,133,7.0,12.0,80,0.00,,---,0.00,VWS V14.01,2013-05-14 02:13:00,
2013-05-13 21:18:00,71.7,65.9,30.22,ESE,118,9.0,12.0,82,0.00,,---,0.00,VWS V14.01,2013-05-14 02:18:00,
2013-05-13 21:23:00,71.7,65.9,30.21,ESE,109,9.0,12.0,82,0.00,,---,0.00,VWS V14.01,2013-05-14 02:23:00,
2013-05-13 21:28:00,71.6,65.5,30.21,ESE,106,4.0,13.0,81,0.00,,---,0.00,VWS V14.01,2013-05-14 02:28:00,
2013-05-13 21:33:00,71.7,65.9,30.21,East,94,11.0,13.0,82,0.00,,---,0.00,VWS V14.01,2013-05-14 02:33:00,
2013-05-13 21:38:00,71.7,65.9,30.21,ESE,105,4.0,13.0,82,0.00,,---,0.00,VWS V14.01,2013-05-14 02:38:00,
2013-05-13 21:43:00,71.6,65.1,30.22,East,92,7.0,13.0,80,0.00,,---,0.00,VWS V14.01,2013-05-14 02:43:00,
2013-05-13 21:48:00,71.7,65.6,30.22,ESE,121,9.0,13.0,81,0.00,,---,0.00,VWS V14.01,2013-05-14 02:48:00,
2013-05-13 21:53:00,71.7,65.2,30.22,ESE,105,10.0,13.0,80,0.00,,---,0.00,VWS V14.01,2013-05-14 02:53:00,
2013-05-13 21:58:00,71.7,64.8,30.23,ESE,115,6.0,13.0,79,0.00,,---,0.00,VWS V14.01,2013-05-14 02:58:00,
2013-05-13 22:03:00,71.7,64.8,30.23,East,97,8.0,10.0,79,0.00,,---,0.00,VWS V14.01,2013-05-14 03:03:00,
2013-05-13 22:08:00,71.7,64.1,30.23,SE,127,7.0,13.0,77,0.00,,---,0.00,VWS V14.01,2013-05-14 03:08:00,
2013-05-13 22:13:00,71.8,64.6,30.23,East,91,6.0,13.0,78,0.00,,---,0.00,VWS V14.01,2013-05-14 03:13:00,
2013-05-13 22:18:00,71.8,64.9,30.23,ESE,121,4.0,13.0,79,0.00,,---,0.00,VWS V14.01,2013-05-14 03:18:00,
2013-05-13 22:23:00,71.8,64.9,30.24,East,88,6.0,13.0,79,0.00,,---,0.00,VWS V14.01,2013-05-14 03:23:00,
2013-05-13 22:28:00,71.8,64.6,30.23,ESE,113,5.0,13.0,78,0.00,,---,0.00,VWS V14.01,2013-05-14 03:28:00,
2013-05-13 22:33:00,71.8,65.3,30.24,ESE,120,4.0,13.0,80,0.00,,---,0.00,VWS V14.01,2013-05-14 03:33:00,
2013-05-13 22:38:00,71.6,64.8,30.23,East,97,12.0,13.0,79,0.00,,---,0.00,VWS V14.01,2013-05-14 03:38:00,
2013-05-13 22:43:00,71.6,65.1,30.23,ESE,110,7.0,13.0,80,0.00,,---,0.00,VWS V14.01,2013-05-14 03:43:00,
2013-05-13 22:48:00,71.5,64.7,30.23,SE,131,6.0,13.0,79,0.00,,---,0.00,VWS V14.01,2013-05-14 03:48:00,
2013-05-13 22:53:00,71.5,64.7,30.23,ESE,112,6.0,13.0,79,0.00,,---,0.00,VWS V14.01,2013-05-14 03:53:00,
2013-05-13 22:58:00,71.5,65.0,30.24,ESE,117,6.0,13.0,80,0.00,,---,0.00,VWS V14.01,2013-05-14 03:58:00,
2013-05-13 23:01:00,71.5,65.0,30.23,ESE,120,8.0,13.0,80,0.00,,---,0.00,VWS V14.01,2013-05-14 04:01:00,
2013-05-13 23:06:00,71.4,64.9,30.23,SE,138,6.0,10.0,80,0.00,,---,0.00,VWS V14.01,2013-05-14 04:06:00,
2013-05-13 23:11:00,71.3,65.2,30.24,East,93,8.0,11.0,81,0.00,,---,0.00,VWS V14.01,2013-05-14 04:11:00,
2013-05-13 23:16:00,71.3,64.8,30.24,SE,125,7.0,12.0,80,0.00,,---,0.00,VWS V14.01,2013-05-14 04:16:00,
2013-05-13 23:21:00,71.2,64.7,30.24,East,99,9.0,12.0,80,0.00,,---,0.00,VWS V14.01,2013-05-14 04:21:00,
2013-05-13 23:26:00,71.2,64.4,30.24,ESE,116,7.0,13.0,79,0.00,,---,0.00,VWS V14.01,2013-05-14 04:26:00,
2013-05-13 23:31:00,71.2,64.0,30.24,East,94,8.0,13.0,78,0.00,,---,0.00,VWS V14.01,2013-05-14 04:31:00,
2013-05-13 23:36:00,71.2,63.6,30.24,ESE,117,5.0,13.0,77,0.00,,---,0.00,VWS V14.01,2013-05-14 04:36:00,
2013-05-13 23:41:00,71.3,63.7,30.24,SE,125,9.0,13.0,77,0.00,,---,0.00,VWS V14.01,2013-05-14 04:41:00,
2013-05-13 23:46:00,71.3,64.1,30.25,ESE,110,7.0,13.0,78,0.00,,---,0.00,VWS V14.01,2013-05-14 04:46:00,
2013-05-13 23:51:00,71.2,64.4,30.25,East,100,4.0,13.0,79,0.00,,---,0.00,VWS V14.01,2013-05-14 04:51:00,
2013-05-13 23:56:00,71.2,64.7,30.25,SE,133,6.0,13.0,80,0.00,,---,0.00,VWS V14.01,2013-05-14 04:56:00,